SCP
-0 0 0 0 0 0 0 0 -0 -0 0 -0 -0 0 -0 -0 -0 -0 -0 0 0 -0 -0 -0 -0 -0 -0 -0 -0 -0 -0 -0 -0 0 0 0 0 0 0 -0 -0 -0 0 0 0 0 0 0 0
-0 0 0 -0 0 0 0 0 0 -0 0 -0 -0 0 0 -0 -0 -0 -0 0 0 -0 -0 -0 -0 -0 -0 -0 -0 -0 -0 -0 -0 -0 -0 -0 0 0 0 0 0 0 0 0 0 0 0 0 0
-0 -0 -0 -0 -0 0 0 0 0 -0 -0 -0 0 -0 -0 0 -0 -0 -0 -0 0 -0 -0 -0 -0 -0 -0 -0 -0 -0 -0 -0 -0 -0 -0 -0 -0 0 0 0 0 0 0 0 0 0 0 0 0
-0 -0 -0 -0 0 0 0 0 0 -0 0 0 -0 -0 -0 -0 0 -0 -0 -0 -0 -0 -0 -0 0 0 -0 -0 -0 -0 -0 -0 -0 -0 -0 -0 -0 -0 -0 -0 0 0 0 0 0 0 0 0 0
-0 0 0 0 0 0 0 0 0 0 -0 -0 0 -0 -0 -0 -0 -0 -0 -0 -0 -0 -0 -0 -0 -0 -0 -0 -0 -0 -0 -0 -0 -0 -0 -0 -0 -0 -0 0 0 0 0 0 0 0 0 0 0
0 0 -0 0 0 0 0 0 0 0 0 -0 0 -0 -0 -0 -0 -0 -0 -0 -0 -0 -0 -0 -0 -0 -0 0 -0 -0 -0 -0 -0 0 -0 -0 -0 0 0 0 0 0 0 0 0 0 0 0 0
0 -0 -0 0 0 0 0 0 0 0 0 -0 0 0 -0 -0 -0 0 -0 -0 -0 -0 -0 0 -0 -0 -0 -0 0 -0 0 0 0 0 0 0 0 0 0 0 0 0 0 0 0 0 0 0 0
0 0 0 0 0 0 0 0 0 0 0 0 0 0 0 -0 0 0 0 -0 -0 -0 0 0 0 0 -0 0 0 0 0 0 0 0 0 0 0 0 0 0 0 0 0 0 0 0 0 0 0
0 0 0 0 0 0 0 0 0 0 0 0 0 0 0 0 0 0 0 0 0 0 0 0 0 0 0 0 0 0 0 0 0 0 0 0 0 0 0 0 0 0 0 0 0 0 0 0 0
0 0 0 0 0 0 0 0 0 0 0 0 0 0 0 0 0 0 0 0 0 0 0 0 0 0 0 0 0 0 0 0 0 0 0 0 0 0 0 0 0 0 0 0 0 0 0 0 0
0 0 0 0 0 0 0 0 0 0 0 0 0 0 0 0 0 0 0 0 0 0 0 0 0 0 0 0 0 0 0 0 0 0 0 0 0 0 0 0 0 0 0 0 0 0 0 0 0
0 0 0 0 0 0 0 0 0 0 0 0 0 0 0 0 0 0 0 0 0 0 0 0 0 0 0 0 0 0 0 0 0 0 0 0 0 0 0 0 0 0 0 0 0 0 0 0 0
0 0 0 0 0 0 0 0 0 0 0 0 0 0 0 0 0 0 0 0 0 0 0 0 0 0 0 0 0 0 0 0 0 0 0 0 0 0 0 0 0 0 0 0 0 0 0 0 0
0 0 0 0 0 0 0 0 0 0 0 0 0 0 0 0 0 0 0 0 0 0 0 0 0 0 0 0 0 0 0 0 0 0 0 0 0 0 0 0 0 0 0 0 0 0 0 0 0
0 0 0 0 0 0 0 0 0 0 0 0 0 0 0 0 0 0 0 0 0 0 0 0 0 0 0 0 0 0 0 0 0 0 0 0 0 0 0 0 0 0 0 0 0 0 0 0 0
0 0 0 0 0 0 0 0 0 0 0 0 0 0 0 0 0 0 0 0 0 0 0 0 0 0 0 0 0 0 0 0 0 0 0 0 0 0 0 0 0 0 0 0 0 0 0 0 0
0 0 0 0 0 0 0 0 0 0 0 0 0 0 0 0 0 0 0 0 0 0 0 0 0 0 0 0 0 0 0 0 0 0 0 0 0 0 0 0 0 0 0 0 0 0 0 0 0
0 0 0 0 0 0 0 0 0 0 0 0 0 0 0 0 0 0 0 0 0 0 0 0 0 0 0 0 0 0 0 0 0 0 0 0 0 0 0 0 0 0 0 0 0 0 0 0 0
0 0 0 0 0 0 0 0 0 0 0 0 0 0 0 0 0 0 0 0 0 0 0 0 0 0 0 0 0 0 0 0 0 0 0 0 0 0 0 0 0 0 0 0 0 0 0 0 0
0 0 0 0 0 0 0 0 0 0 0 0 0 0 0 0 0 0 0 0 0 0 0 0 0 0 0 0 0 0 0 0 0 0 0 0 0 0 0 0 0 0 0 0 0 0 0 0 0
0 0 0 0 0 0 0 0 0 0 0 0 0 0 0 0 0 0 0 0 0 0 0 0 0 0 0 0 0 0 0 0 0 0 0 0 0 0 0 0 0 0 0 0 0 0 0 0 0
0 0 0 0 0 0 0 0 0 0 0 0 0 0 0 0 0 0 0 0 0 0 0 0 0 0 0 0 0 0 0 0 0 0 0 0 0 0 0 0 0 0 0 0 0 0 0 0 0
0 0 0 0 0 0 0 0 0 0 0 0 0 0 0 0 0 0 0 0 0 0 0 0 0 0 0 0 0 0 0 0 0 0 0 0 0 0 0 0 0 0 0 0 0 0 0 0 0
0 0 0 0 0 0 0 0 0 0 0 0 0 0 0 0 0 0 0 0 0 0 0 0 0 0 0 0 0 0 0 0 0 0 0 0 0 0 0 0 0 0 0 0 0 0 0 0 0
0 0 0 0 0 0 0 0 0 0 0 0 0 0 0 0 0 0 0 0 0 0 0 0 0 0 0 0 0 0 0 0 0 0 0 0 0 0 0 0 0 0 0 0 0 0 0 0 0
0 0 0 0 0 0 0 0 0 0 0 0 0 0 0 0 0 0 0 0 0 0 0 0 0 0 0 0 0 0 0 0 0 0 0 0 0 0 0 0 0 0 0 0 0 0 0 0 0
0 0 0 0 0 0 0 0 0 0 0 0 0 0 0 0 0 0 0 0 0 0 0 0 0 0 0 0 0 0 0 0 0 0 0 0 0 0 0 0 0 0 0 0 0 0 0 0 0
0 0 0 0 0 0 0 0 0 0 0 0 0 0 0 0 0 0 0 0 0 0 0 0 0 0 0 0 0 0 0 0 0 0 0 0 0 0 0 0 0 0 0 0 0 0 0 0 0
0 0 0 0 0 0 0 0 0 0 0 0 0 0 0 0 0 0 0 0 0 0 0 0 0 0 0 0 0 0 0 0 0 0 0 0 0 0 0 0 0 0 0 0 0 0 0 0 0
0 0 0 0 0 0 0 0 0 0 0 0 0 0 0 0 0 0 0 0 0 0 0 0 0 0 0 0 0 0 0 0 0 0 0 0 0 0 0 0 0 0 0 0 0 0 0 0 0
Wind_Speed_500mb
5 3 3 4 9 5 10 9 2 5 7 12 10 15 22 27 21 10 3 5 1 21 27 30 26 23 19 19 16 12 9 7 7 8 10 9 7 10 13 18 23 25 25 20 16 14 14 13 12
5 5 2 7 9 11 11 11 10 10 11 6 5 3 13 25 22 17 5 3 3 21 27 28 28 22 17 18 16 13 11 5 4 5 5 4 7 9 11 16 22 24 23 21 13 10 9 9 9
7 3 8 6 7 8 12 8 12 10 7 3 6 9 7 13 20 10 6 7 8 19 24 26 29 24 21 18 14 11 8 5 4 2 2 4 6 9 11 17 23 26 24 19 12 9 7 7 6
2 4 8 12 5 7 9 11 9 12 6 3 3 17 15 16 6 9 13 13 13 14 24 25 31 24 22 19 14 10 12 7 5 2 3 5 3 4 9 17 22 25 23 19 12 7 7 7 7
4 8 7 5 6 9 8 8 5 7 8 10 2 13 14 15 16 16 12 13 10 14 20 22 28 26 25 18 12 11 9 10 5 4 2 1 1 4 10 15 19 22 25 20 12 8 8 9 9
9 8 10 12 10 9 8 8 6 6 7 12 6 14 14 11 9 9 11 9 12 13 21 18 30 29 25 23 20 18 16 13 9 4 2 3 7 9 13 17 19 21 23 23 14 12 11 10 9
9 9 11 8 12 13 9 8 12 8 10 10 3 10 20 13 8 5 6 8 10 13 17 17 18 30 30 27 26 20 19 14 11 11 6 7 6 8 13 17 17 17 17 17 15 13 11 10 8
5 7 7 10 13 13 11 12 5 7 10 4 3 7 17 4 4 2 5 6 8 13 19 20 18 29 34 27 28 28 23 21 15 14 13 11 16 16 15 19 19 20 18 17 16 16 15 13 9
2 8 11 8 12 9 12 14 7 1 5 5 3 4 4 8 5 3 3 4 9 13 16 18 21 24 33 39 33 38 29 26 24 22 21 18 20 17 16 21 20 23 20 25 20 16 18 17 13
7 8 3 6 0 8 14 9 8 10 13 12 9 3 8 9 4 5 7 5 10 15 19 21 23 25 27 30 36 35 32 33 28 25 25 23 17 15 16 17 22 23 22 21 25 26 20 21 19
2 8 4 6 6 4 8 8 5 10 12 11 4 2 5 3 2 5 7 12 16 17 21 23 27 30 30 30 28 25 30 27 24 18 22 19 19 17 14 18 20 19 22 23 26 29 30 29 23
10 5 3 3 7 4 9 3 9 10 6 6 4 4 5 6 5 5 5 6 8 11 15 17 17 20 30 30 27 20 19 22 23 15 17 16 16 17 17 20 22 17 21 20 24 19 23 29 27
11 5 6 7 9 11 5 15 15 11 6 6 5 9 5 3 1 2 4 7 10 13 17 19 19 18 20 26 21 21 23 27 30 24 15 15 15 13 16 17 14 17 18 21 20 21 24 30 37
3 7 11 12 19 16 14 16 9 13 14 12 9 5 2 2 4 6 10 11 13 16 18 19 18 17 13 22 29 32 28 22 18 18 18 19 24 24 23 18 18 12 15 22 24 23 25 25 27
6 12 17 26 24 12 14 18 23 20 19 13 9 4 2 7 10 12 13 12 12 14 13 13 12 14 22 29 33 35 29 25 19 13 6 3 8 13 15 16 10 15 19 20 29 28 27 25 22
10 9 16 16 18 9 19 16 20 19 22 17 10 7 7 12 13 13 12 11 11 9 8 9 13 22 26 34 41 36 31 23 17 15 9 5 1 5 11 13 15 17 21 22 25 28 20 22 25
17 21 17 9 18 8 21 6 22 15 24 21 15 11 9 7 9 11 11 9 8 10 12 14 20 26 32 33 33 31 29 24 19 12 11 8 2 4 8 8 8 9 12 15 18 15 18 25 26
21 24 21 21 15 17 21 27 18 20 22 23 19 17 13 10 7 9 12 14 18 23 27 28 32 35 35 34 32 31 28 21 17 12 10 5 1 4 4 5 6 9 11 11 13 15 18 23 30
18 21 25 15 7 8 27 31 23 30 24 25 24 21 16 12 11 17 20 26 30 33 36 39 42 48 42 41 37 34 31 29 23 17 16 14 13 10 8 8 8 9 11 15 19 21 21 26 30
27 30 33 26 9 9 26 35 31 32 35 32 29 24 23 19 17 22 25 32 35 37 39 41 41 40 39 38 39 35 32 35 34 30 24 21 17 15 13 14 14 16 18 19 21 22 24 27 33
31 33 30 30 4 22 25 39 44 33 24 22 25 25 26 28 28 27 31 34 39 40 40 40 38 35 33 35 40 44 42 38 32 28 23 20 15 13 13 14 15 17 19 21 25 26 27 28 31
33 29 29 26 12 21 11 19 11 29 27 32 36 37 37 36 32 32 38 42 49 51 50 48 46 44 43 42 39 33 31 32 30 26 21 16 13 12 12 13 15 17 19 21 25 27 29 30 33
14 5 14 22 28 30 35 17 25 16 25 35 45 47 46 44 40 40 42 50 52 54 51 48 44 40 36 31 28 30 33 31 26 21 16 12 11 11 13 14 16 18 20 23 25 26 29 31 31
20 12 6 5 17 25 34 31 29 22 24 34 48 53 54 51 46 42 48 51 53 54 49 45 41 40 37 35 33 31 27 24 22 17 10 8 9 11 13 16 19 22 24 26 28 30 31 31 32
26 16 8 11 12 16 6 28 36 10 17 31 53 65 62 56 50 49 53 52 54 52 47 42 39 38 36 33 30 26 21 19 15 5 1 1 2 5 9 13 16 19 23 26 29 30 31 33 34
38 34 13 13 16 17 2 19 14 9 25 20 54 65 63 60 54 57 56 56 57 53 47 43 40 36 34 29 25 24 24 21 13 8 10 7 4 1 6 11 15 20 24 26 29 32 33 34 35
20 26 30 10 3 8 15 21 11 15 14 21 49 61 65 66 64 65 60 62 61 56 48 42 38 33 30 28 28 27 25 21 16 16 12 8 3 4 9 14 20 23 27 30 32 33 34 36 38
14 20 12 13 12 15 17 24 19 23 31 30 43 63 66 64 66 69 70 67 65 60 52 45 39 35 32 32 31 31 29 23 17 13 8 3 3 7 13 18 24 30 32 34 35 36 38 40 42
15 18 18 13 18 8 9 14 21 29 38 43 44 62 69 71 73 76 75 69 66 62 57 51 46 42 39 39 38 34 28 23 18 13 8 3 4 10 16 23 29 32 34 35 36 39 42 46 48
36 29 40 13 13 19 12 21 8 8 29 46 54 65 69 73 72 74 78 73 69 67 62 56 51 47 44 44 41 37 32 26 20 15 11 7 9 13 20 25 30 31 33 35 38 41 45 49 51
Wind_Direction_500mb
329 7 58 305 235 229 123 97 25 92 118 48 43 24 63 43 23 51 33 148 140 162 184 186 182 177 175 176 169 165 161 140 99 92 95 102 44 20 20 22 28 30 30 31 34 40 42 45 49
89 104 11 274 249 174 114 126 115 65 74 80 81 123 62 77 56 77 77 15 122 164 174 182 186 180 192 186 181 182 178 175 117 105 92 51 14 4 11 18 15 15 16 24 25 31 38 43 37
90 101 268 270 290 88 130 147 110 101 82 123 122 37 38 50 51 69 80 72 101 156 163 190 181 179 192 190 191 195 196 197 175 121 31 357 7 7 3 8 5 1 358 6 9 10 6 8 11
360 259 239 255 150 71 97 122 106 143 113 96 84 91 90 43 60 58 112 93 116 153 165 205 186 183 193 185 201 223 223 222 225 270 326 354 17 37 3 1 2 3 1 359 4 357 354 345 338
324 248 245 231 129 120 115 97 138 158 113 112 270 116 90 50 68 77 91 83 123 149 177 199 196 195 200 205 194 220 220 237 250 292 285 103 27 11 0 357 356 359 7 13 17 359 352 343 332
236 281 240 203 172 138 134 132 171 189 137 120 134 120 88 73 92 88 95 89 109 154 177 190 200 208 210 208 201 212 213 228 258 258 243 213 348 357 355 348 348 353 360 13 16 5 357 350 345
292 260 285 290 173 174 154 160 205 164 161 108 81 168 136 65 69 93 107 113 132 156 175 187 204 213 215 215 211 211 232 229 244 255 256 261 237 305 329 332 335 338 347 0 6 1 357 358 1
299 268 250 228 193 198 156 175 158 240 111 115 29 174 164 273 26 81 186 195 197 186 182 182 189 211 207 217 227 224 215 233 245 257 256 270 264 279 296 310 321 320 323 333 342 350 352 352 356
357 247 235 226 229 186 165 190 170 194 193 117 62 83 221 270 266 219 228 242 222 216 217 219 221 211 210 212 215 226 229 230 238 250 255 263 267 260 271 313 319 326 343 336 330 331 345 343 339
266 264 287 1 184 197 165 222 175 217 192 174 104 37 302 299 253 181 197 226 238 238 239 238 235 230 227 223 220 219 226 232 241 242 251 247 240 204 298 311 319 326 329 343 351 346 349 344 336
182 279 96 161 149 167 183 220 215 247 234 49 325 81 328 1 102 161 203 234 244 252 255 252 245 239 234 227 223 215 213 224 227 234 237 236 237 251 295 299 306 323 331 331 344 349 349 352 343
244 195 207 160 177 196 217 263 243 252 76 129 125 153 110 87 87 128 167 201 225 239 250 254 255 246 233 228 220 199 200 211 230 228 223 224 252 279 290 286 301 309 321 318 322 333 334 339 344
247 183 198 199 191 217 247 246 262 201 160 167 182 145 109 94 78 280 277 278 268 257 256 260 262 259 245 220 200 184 191 200 210 222 224 232 246 267 271 270 273 284 295 294 300 320 321 329 338
19 257 242 225 228 235 226 229 204 199 170 151 142 125 124 242 252 276 269 274 276 277 274 269 268 264 243 193 186 189 191 198 205 225 239 243 257 263 268 278 281 251 258 293 292 293 306 308 322
266 271 242 229 231 236 211 229 227 155 167 168 169 167 253 293 295 288 286 282 277 269 262 251 232 187 187 190 181 184 184 190 188 195 207 271 295 306 292 299 266 278 294 291 284 280 279 296 304
250 247 255 119 186 195 195 258 151 177 185 193 209 226 250 266 263 262 259 258 258 245 218 189 181 175 171 165 169 177 177 174 169 152 151 161 294 314 328 333 329 308 308 311 304 289 277 298 310
212 263 216 201 200 162 207 234 163 192 203 212 214 219 226 242 263 239 223 207 188 149 136 135 128 134 143 156 165 166 162 161 156 160 132 90 332 31 24 9 343 335 345 340 334 329 318 307 309
259 227 250 252 166 216 220 251 168 188 205 213 214 214 215 214 221 212 170 153 132 128 124 123 124 128 139 149 153 151 152 156 154 153 134 116 103 334 323 342 338 332 334 332 320 313 311 308 305
287 275 263 272 106 257 242 256 226 197 209 217 214 207 199 185 195 178 161 143 137 132 130 131 131 132 138 141 143 148 152 147 141 133 124 122 108 91 67 53 25 4 360 358 348 342 334 326 326
241 252 255 262 160 245 267 261 254 194 216 222 217 202 190 172 162 160 157 152 147 141 136 135 139 142 148 151 150 150 143 133 124 117 109 95 82 66 52 40 30 21 10 5 360 359 359 349 349
234 243 255 261 152 237 272 268 249 225 211 214 212 196 183 173 162 157 155 153 153 151 150 150 150 147 147 145 140 134 130 124 118 112 102 89 74 57 38 29 23 18 13 10 10 7 7 6 5
244 229 253 265 244 264 176 281 266 201 204 207 201 186 177 168 161 157 151 148 148 145 141 138 135 134 136 137 138 136 130 126 117 110 96 84 67 51 38 29 20 15 13 8 5 4 3 0 0
249 99 224 246 257 270 249 267 260 156 214 207 198 190 180 174 168 161 157 153 149 145 144 143 143 144 143 144 146 145 144 136 129 117 102 82 58 38 28 19 14 9 9 7 4 360 359 358 357
129 110 93 244 258 254 237 225 255 199 214 193 193 189 180 175 172 168 163 157 152 147 146 147 150 150 148 150 150 147 142 132 124 103 70 46 28 14 5 4 2 2 360 358 356 356 355 353 351
194 175 244 234 212 255 314 219 252 169 186 185 182 184 180 175 174 175 170 164 159 157 154 153 152 154 155 153 151 153 154 148 139 77 347 145 62 14 356 360 0 354 351 350 347 346 346 343 342
199 198 202 250 239 263 83 235 243 9 141 176 182 178 177 178 180 181 177 172 170 167 165 162 161 162 158 157 163 173 176 171 166 178 168 157 149 26 352 350 350 351 347 345 341 339 337 337 334
178 223 233 315 132 271 219 244 221 157 164 173 177 178 180 182 183 184 183 181 179 177 174 173 171 168 168 174 182 181 183 184 183 174 168 160 119 22 355 350 345 346 343 339 337 333 332 332 331
225 166 175 207 225 239 241 244 239 204 189 176 178 185 184 184 185 189 190 188 186 184 182 180 180 183 184 189 192 194 194 191 187 183 178 160 4 346 343 342 339 337 332 331 330 328 330 330 330
185 212 222 219 220 253 273 243 194 202 188 185 185 186 184 186 189 192 194 194 192 191 190 189 189 192 195 200 200 197 198 198 197 203 204 222 307 327 333 333 328 327 325 325 326 327 330 329 328
225 214 206 208 197 235 275 258 160 159 180 180 183 188 190 190 190 193 198 198 198 199 197 197 196 198 203 205 202 203 205 203 207 216 225 256 289 310 318 322 322 323 320 323 325 327 328 325 324
Wind_Speed_850mb
5 3 3 4 9 5 10 9 2 5 7 12 10 15 22 27 21 10 3 5 1 21 27 30 26 23 19 19 16 12 9 7 7 8 10 9 7 10 13 18 23 25 25 20 16 14 14 13 12
5 5 2 7 9 11 11 11 10 10 11 6 5 3 13 25 22 17 5 3 3 21 27 28 28 22 17 18 16 13 11 5 4 5 5 4 7 9 11 16 22 24 23 21 13 10 9 9 9
7 3 8 6 7 8 12 8 12 10 7 3 6 9 7 13 20 10 6 7 8 19 24 26 29 24 21 18 14 11 8 5 4 2 2 4 6 9 11 17 23 26 24 19 12 9 7 7 6
2 4 8 12 5 7 9 11 9 12 6 3 3 17 15 16 6 9 13 13 13 14 24 25 31 24 22 19 14 10 12 7 5 2 3 5 3 4 9 17 22 25 23 19 12 7 7 7 7
4 8 7 5 6 9 8 8 5 7 8 10 2 13 14 15 16 16 12 13 10 14 20 22 28 26 25 18 12 11 9 10 5 4 2 1 1 4 10 15 19 22 25 20 12 8 8 9 9
9 8 10 12 10 9 8 8 6 6 7 12 6 14 14 11 9 9 11 9 12 13 21 18 30 29 25 23 20 18 16 13 9 4 2 3 7 9 13 17 19 21 23 23 14 12 11 10 9
9 9 11 8 12 13 9 8 12 8 10 10 3 10 20 13 8 5 6 8 10 13 17 17 18 30 30 27 26 20 19 14 11 11 6 7 6 8 13 17 17 17 17 17 15 13 11 10 8
5 7 7 10 13 13 11 12 5 7 10 4 3 7 17 4 4 2 5 6 8 13 19 20 18 29 34 27 28 28 23 21 15 14 13 11 16 16 15 19 19 20 18 17 16 16 15 13 9
2 8 11 8 12 9 12 14 7 1 5 5 3 4 4 8 5 3 3 4 9 13 16 18 21 24 33 39 33 38 29 26 24 22 21 18 20 17 16 21 20 23 20 25 20 16 18 17 13
7 8 3 6 0 8 14 9 8 10 13 12 9 3 8 9 4 5 7 5 10 15 19 21 23 25 27 30 36 35 32 33 28 25 25 23 17 15 16 17 22 23 22 21 25 26 20 21 19
2 8 4 6 6 4 8 8 5 10 12 11 4 2 5 3 2 5 7 12 16 17 21 23 27 30 30 30 28 25 30 27 24 18 22 19 19 17 14 18 20 19 22 23 26 29 30 29 23
10 5 3 3 7 4 9 3 9 10 6 6 4 4 5 6 5 5 5 6 8 11 15 17 17 20 30 30 27 20 19 22 23 15 17 16 16 17 17 20 22 17 21 20 24 19 23 29 27
11 5 6 7 9 11 5 15 15 11 6 6 5 9 5 3 1 2 4 7 10 13 17 19 19 18 20 26 21 21 23 27 30 24 15 15 15 13 16 17 14 17 18 21 20 21 24 30 37
3 7 11 12 19 16 14 16 9 13 14 12 9 5 2 2 4 6 10 11 13 16 18 19 18 17 13 22 29 32 28 22 18 18 18 19 24 24 23 18 18 12 15 22 24 23 25 25 27
6 12 17 26 24 12 14 18 23 20 19 13 9 4 2 7 10 12 13 12 12 14 13 13 12 14 22 29 33 35 29 25 19 13 6 3 8 13 15 16 10 15 19 20 29 28 27 25 22
10 9 16 16 18 9 19 16 20 19 22 17 10 7 7 12 13 13 12 11 11 9 8 9 13 22 26 34 41 36 31 23 17 15 9 5 1 5 11 13 15 17 21 22 25 28 20 22 25
17 21 17 9 18 8 21 6 22 15 24 21 15 11 9 7 9 11 11 9 8 10 12 14 20 26 32 33 33 31 29 24 19 12 11 8 2 4 8 8 8 9 12 15 18 15 18 25 26
21 24 21 21 15 17 21 27 18 20 22 23 19 17 13 10 7 9 12 14 18 23 27 28 32 35 35 34 32 31 28 21 17 12 10 5 1 4 4 5 6 9 11 11 13 15 18 23 30
18 21 25 15 7 8 27 31 23 30 24 25 24 21 16 12 11 17 20 26 30 33 36 39 42 48 42 41 37 34 31 29 23 17 16 14 13 10 8 8 8 9 11 15 19 21 21 26 30
27 30 33 26 9 9 26 35 31 32 35 32 29 24 23 19 17 22 25 32 35 37 39 41 41 40 39 38 39 35 32 35 34 30 24 21 17 15 13 14 14 16 18 19 21 22 24 27 33
31 33 30 30 4 22 25 39 44 33 24 22 25 25 26 28 28 27 31 34 39 40 40 40 38 35 33 35 40 44 42 38 32 28 23 20 15 13 13 14 15 17 19 21 25 26 27 28 31
33 29 29 26 12 21 11 19 11 29 27 32 36 37 37 36 32 32 38 42 49 51 50 48 46 44 43 42 39 33 31 32 30 26 21 16 13 12 12 13 15 17 19 21 25 27 29 30 33
14 5 14 22 28 30 35 17 25 16 25 35 45 47 46 44 40 40 42 50 52 54 51 48 44 40 36 31 28 30 33 31 26 21 16 12 11 11 13 14 16 18 20 23 25 26 29 31 31
20 12 6 5 17 25 34 31 29 22 24 34 48 53 54 51 46 42 48 51 53 54 49 45 41 40 37 35 33 31 27 24 22 17 10 8 9 11 13 16 19 22 24 26 28 30 31 31 32
26 16 8 11 12 16 6 28 36 10 17 31 53 65 62 56 50 49 53 52 54 52 47 42 39 38 36 33 30 26 21 19 15 5 1 1 2 5 9 13 16 19 23 26 29 30 31 33 34
38 34 13 13 16 17 2 19 14 9 25 20 54 65 63 60 54 57 56 56 57 53 47 43 40 36 34 29 25 24 24 21 13 8 10 7 4 1 6 11 15 20 24 26 29 32 33 34 35
20 26 30 10 3 8 15 21 11 15 14 21 49 61 65 66 64 65 60 62 61 56 48 42 38 33 30 28 28 27 25 21 16 16 12 8 3 4 9 14 20 23 27 30 32 33 34 36 38
14 20 12 13 12 15 17 24 19 23 31 30 43 63 66 64 66 69 70 67 65 60 52 45 39 35 32 32 31 31 29 23 17 13 8 3 3 7 13 18 24 30 32 34 35 36 38 40 42
15 18 18 13 18 8 9 14 21 29 38 43 44 62 69 71 73 76 75 69 66 62 57 51 46 42 39 39 38 34 28 23 18 13 8 3 4 10 16 23 29 32 34 35 36 39 42 46 48
36 29 40 13 13 19 12 21 8 8 29 46 54 65 69 73 72 74 78 73 69 67 62 56 51 47 44 44 41 37 32 26 20 15 11 7 9 13 20 25 30 31 33 35 38 41 45 49 51
Wind_Direction_850mb
329 7 58 305 235 229 123 97 25 92 118 48 43 24 63 43 23 51 33 148 140 162 184 186 182 177 175 176 169 165 161 140 99 92 95 102 44 20 20 22 28 30 30 31 34 40 42 45 49
89 104 11 274 249 174 114 126 115 65 74 80 81 123 62 77 56 77 77 15 122 164 174 182 186 180 192 186 181 182 178 175 117 105 92 51 14 4 11 18 15 15 16 24 25 31 38 43 37
90 101 268 270 290 88 130 147 110 101 82 123 122 37 38 50 51 69 80 72 101 156 163 190 181 179 192 190 191 195 196 197 175 121 31 357 7 7 3 8 5 1 358 6 9 10 6 8 11
360 259 239 255 150 71 97 122 106 143 113 96 84 91 90 43 60 58 112 93 116 153 165 205 186 183 193 185 201 223 223 222 225 270 326 354 17 37 3 1 2 3 1 359 4 357 354 345 338
324 248 245 231 129 120 115 97 138 158 113 112 270 116 90 50 68 77 91 83 123 149 177 199 196 195 200 205 194 220 220 237 250 292 285 103 27 11 0 357 356 359 7 13 17 359 352 343 332
236 281 240 203 172 138 134 132 171 189 137 120 134 120 88 73 92 88 95 89 109 154 177 190 200 208 210 208 201 212 213 228 258 258 243 213 348 357 355 348 348 353 360 13 16 5 357 350 345
292 260 285 290 173 174 154 160 205 164 161 108 81 168 136 65 69 93 107 113 132 156 175 187 204 213 215 215 211 211 232 229 244 255 256 261 237 305 329 332 335 338 347 0 6 1 357 358 1
299 268 250 228 193 198 156 175 158 240 111 115 29 174 164 273 26 81 186 195 197 186 182 182 189 211 207 217 227 224 215 233 245 257 256 270 264 279 296 310 321 320 323 333 342 350 352 352 356
357 247 235 226 229 186 165 190 170 194 193 117 62 83 221 270 266 219 228 242 222 216 217 219 221 211 210 212 215 226 229 230 238 250 255 263 267 260 271 313 319 326 343 336 330 331 345 343 339
266 264 287 1 184 197 165 222 175 217 192 174 104 37 302 299 253 181 197 226 238 238 239 238 235 230 227 223 220 219 226 232 241 242 251 247 240 204 298 311 319 326 329 343 351 346 349 344 336
182 279 96 161 149 167 183 220 215 247 234 49 325 81 328 1 102 161 203 234 244 252 255 252 245 239 234 227 223 215 213 224 227 234 237 236 237 251 295 299 306 323 331 331 344 349 349 352 343
244 195 207 160 177 196 217 263 243 252 76 129 125 153 110 87 87 128 167 201 225 239 250 254 255 246 233 228 220 199 200 211 230 228 223 224 252 279 290 286 301 309 321 318 322 333 334 339 344
247 183 198 199 191 217 247 246 262 201 160 167 182 145 109 94 78 280 277 278 268 257 256 260 262 259 245 220 200 184 191 200 210 222 224 232 246 267 271 270 273 284 295 294 300 320 321 329 338
19 257 242 225 228 235 226 229 204 199 170 151 142 125 124 242 252 276 269 274 276 277 274 269 268 264 243 193 186 189 191 198 205 225 239 243 257 263 268 278 281 251 258 293 292 293 306 308 322
266 271 242 229 231 236 211 229 227 155 167 168 169 167 253 293 295 288 286 282 277 269 262 251 232 187 187 190 181 184 184 190 188 195 207 271 295 306 292 299 266 278 294 291 284 280 279 296 304
250 247 255 119 186 195 195 258 151 177 185 193 209 226 250 266 263 262 259 258 258 245 218 189 181 175 171 165 169 177 177 174 169 152 151 161 294 314 328 333 329 308 308 311 304 289 277 298 310
212 263 216 201 200 162 207 234 163 192 203 212 214 219 226 242 263 239 223 207 188 149 136 135 128 134 143 156 165 166 162 161 156 160 132 90 332 31 24 9 343 335 345 340 334 329 318 307 309
259 227 250 252 166 216 220 251 168 188 205 213 214 214 215 214 221 212 170 153 132 128 124 123 124 128 139 149 153 151 152 156 154 153 134 116 103 334 323 342 338 332 334 332 320 313 311 308 305
287 275 263 272 106 257 242 256 226 197 209 217 214 207 199 185 195 178 161 143 137 132 130 131 131 132 138 141 143 148 152 147 141 133 124 122 108 91 67 53 25 4 360 358 348 342 334 326 326
241 252 255 262 160 245 267 261 254 194 216 222 217 202 190 172 162 160 157 152 147 141 136 135 139 142 148 151 150 150 143 133 124 117 109 95 82 66 52 40 30 21 10 5 360 359 359 349 349
234 243 255 261 152 237 272 268 249 225 211 214 212 196 183 173 162 157 155 153 153 151 150 150 150 147 147 145 140 134 130 124 118 112 102 89 74 57 38 29 23 18 13 10 10 7 7 6 5
244 229 253 265 244 264 176 281 266 201 204 207 201 186 177 168 161 157 151 148 148 145 141 138 135 134 136 137 138 136 130 126 117 110 96 84 67 51 38 29 20 15 13 8 5 4 3 0 0
249 99 224 246 257 270 249 267 260 156 214 207 198 190 180 174 168 161 157 153 149 145 144 143 143 144 143 144 146 145 144 136 129 117 102 82 58 38 28 19 14 9 9 7 4 360 359 358 357
129 110 93 244 258 254 237 225 255 199 214 193 193 189 180 175 172 168 163 157 152 147 146 147 150 150 148 150 150 147 142 132 124 103 70 46 28 14 5 4 2 2 360 358 356 356 355 353 351
194 175 244 234 212 255 314 219 252 169 186 185 182 184 180 175 174 175 170 164 159 157 154 153 152 154 155 153 151 153 154 148 139 77 347 145 62 14 356 360 0 354 351 350 347 346 346 343 342
199 198 202 250 239 263 83 235 243 9 141 176 182 178 177 178 180 181 177 172 170 167 165 162 161 162 158 157 163 173 176 171 166 178 168 157 149 26 352 350 350 351 347 345 341 339 337 337 334
178 223 233 315 132 271 219 244 221 157 164 173 177 178 180 182 183 184 183 181 179 177 174 173 171 168 168 174 182 181 183 184 183 174 168 160 119 22 355 350 345 346 343 339 337 333 332 332 331
225 166 175 207 225 239 241 244 239 204 189 176 178 185 184 184 185 189 190 188 186 184 182 180 180 183 184 189 192 194 194 191 187 183 178 160 4 346 343 342 339 337 332 331 330 328 330 330 330
185 212 222 219 220 253 273 243 194 202 188 185 185 186 184 186 189 192 194 194 192 191 190 189 189 192 195 200 200 197 198 198 197 203 204 222 307 327 333 333 328 327 325 325 326 327 330 329 328
225 214 206 208 197 235 275 258 160 159 180 180 183 188 190 190 190 193 198 198 198 199 197 197 196 198 203 205 202 203 205 203 207 216 225 256 289 310 318 322 322 323 320 323 325 327 328 325 324